Hourly Data Report for August 30, 2000

SHERBROOKE A
QUEBEC

45°26'00.000" N
71°41'00.000" W
241.40 m
7028124
71610
YSC

Download Data

Hourly Data (August 2000)
Hourly Data Report for August 30, 2000
TIME
LST
Temp Definition
°C
Dew Point Definition
°C
Rel Hum Definition
%
Precip. Amount Definition
mm

Wind Dir Definition
10's deg

Wind Spd Definition
km/h
Visibility Definition
km
Stn Press Definition
kPa
Hmdx Definition


Wind Chill Definition


Weather Definition


00:00 16.9 15.5 91   13 6 8.0 99.22      
01:00 18.4 14.1 76   18 7 15.0 99.22      
02:00 18.4 14.1 76   20 6 15.0 99.18      
03:00 17.7 14.3 80     0 15.0 99.18      
04:00 16.4 14.5 89     0 15.0 99.18      
05:00 16.0 14.7 92     0 15.0 99.18      
06:00 15.7 14.6 93     0 12.9 99.25      
07:00 18.1 15.2 83     0 24.1 99.25     Mostly Cloudy
08:00 19.8 15.5 76   23 4 24.1 99.28     Mostly Cloudy
09:00 22.0 16.2 70   21 11 24.1 99.25 27   Mostly Cloudy
10:00 23.7 16.9 66   22 13 24.1 99.25 29   Mostly Cloudy
11:00 24.1 17.2 65   22 11 24.1 99.22 30   Mostly Cloudy
12:00 24.0 17.3 66   22 13 24.1 99.18 29   Mostly Cloudy
13:00 24.8 18.2 67   25 11 19.3 99.15 31   Mostly Cloudy
14:00 26.6 18.3 60   23 17 19.3 99.12 33   Mostly Cloudy
15:00 26.1 18.3 62   26 20 19.3 99.08 32   Mostly Cloudy
16:00 25.2 17.6 63   23 9 19.3 99.08 31   Mostly Cloudy
17:00 24.7 18.3 68   26 6 15.0 99.08 31    
18:00 23.6 18.9 75   19 6 12.9 99.08 30    
19:00 20.0 18.0 88   23 4 9.7 99.15 26    
20:00 19.1 17.6 91   23 6 9.7 99.18      
21:00 18.7 17.5 93   12 4 8.0 99.22      
22:00 18.9 17.9 94     0 6.4 99.22      
23:00 18.3 17.6 96     0 4.8 99.22      

Notes on Data Quality.

Legend

  • E = Estimated
  • M = Missing
  • NA = Not Available*
  • [empty] = Indicates an unobserved value
Date modified: